| time (UTC) | temp F | wind direction | speed knots | gust knots | rain 1hr in | rain 24hr in | rain mn in | humidity % | barometer mb |
| 20260905090740 | 72 | 93 | 0.0 | 0.9 | 0.00 | 0.00 | 0.00 | 76 | 1009.4 |
| 20260905090236 | 72 | 103 | 0.9 | 0.9 | 0.00 | 0.00 | 0.00 | 76 | 1009.7 |
| 20260905085735 | 72 | 94 | 0.0 | 0.9 | 0.00 | 0.00 | 0.00 | 77 | 1009.6 |
| 20260905085230 | 72 | 96 | 0.9 | 1.7 | 0.00 | 0.00 | 0.00 | 77 | 1009.6 |
| 20260905084730 | 72 | 90 | 0.0 | 0.0 | 0.00 | 0.00 | 0.00 | 80 | 1009.3 |
| 20260905084230 | 72 | 91 | 1.7 | 1.7 | 0.00 | 0.00 | 0.00 | 81 | 1009.6 |
| 20260905083725 | 72 | 94 | 0.0 | 0.9 | 0.00 | 0.00 | 0.00 | 82 | 1009.7 |
| 20260905083221 | 71 | 92 | 0.0 | 0.0 | 0.00 | 0.00 | 0.00 | 84 | 1009.7 |
| 20260905082717 | 71 | 94 | 0.0 | 0.0 | 0.00 | 0.00 | 0.00 | 84 | 1009.6 |
| 20260905082212 | 71 | 90 | 0.0 | 0.0 | 0.00 | 0.00 | 0.00 | 83 | 1009.5 |
| 20260905081712 | 71 | 94 | 0.0 | 0.0 | 0.00 | 0.00 | 0.00 | 83 | 1009.6 |
| 20260905081208 | 72 | 94 | 0.0 | 0.0 | 0.00 | 0.00 | 0.00 | 84 | 1009.6 |
| 20260905080707 | 71 | 93 | 0.0 | 0.9 | 0.00 | 0.00 | 0.00 | 84 | 1009.8 |
| 20260905080206 | 71 | 93 | 0.0 | 0.0 | 0.00 | 0.00 | 0.00 | 84 | 1009.7 |
| 20260905075706 | 72 | 92 | 0.0 | 0.0 | 0.00 | 0.00 | 0.00 | 84 | 1009.7 |
| 20260905075205 | 72 | 92 | 0.0 | 0.9 | 0.00 | 0.00 | 0.00 | 84 | 1009.7 |
| 20260905074704 | 72 | 92 | 0.0 | 0.0 | 0.00 | 0.00 | 0.00 | 84 | 1009.5 |
| 20260905074200 | 72 | 92 | 0.0 | 0.0 | 0.00 | 0.00 | 0.00 | 84 | 1009.9 |
| 20260905073655 | 72 | 94 | 0.0 | 0.0 | 0.00 | 0.00 | 0.00 | 83 | 1009.7 |
| 20260905073151 | 72 | 94 | 0.0 | 0.9 | 0.00 | 0.00 | 0.00 | 83 | 1009.8 |
| 20260905072650 | 72 | 88 | 0.0 | 0.9 | 0.00 | 0.00 | 0.00 | 83 | 1009.7 |
| 20260905072146 | 72 | 92 | 0.0 | 1.7 | 0.00 | 0.00 | 0.00 | 82 | 1009.6 |
| 20260905071642 | 72 | 94 | 0.9 | 0.9 | 0.00 | 0.00 | 0.00 | 82 | 1009.8 |
| 20260905071137 | 73 | 93 | 0.9 | 0.9 | 0.00 | 0.00 | 0.00 | 81 | 1009.7 |
| 20260905070633 | 73 | 92 | 0.0 | 0.9 | 0.00 | 0.00 | 0.00 | 80 | 1009.8 |
| 20260905070129 | 73 | 96 | 0.0 | 1.7 | 0.00 | 0.00 | 0.00 | 80 | 1009.9 |
| 20260905065626 | 73 | 94 | 0.0 | 1.7 | 0.00 | 0.00 | 0.00 | 78 | 1009.8 |
| 20260905065121 | 73 | 109 | 0.9 | 0.9 | 0.00 | 0.00 | 0.00 | 78 | 1009.9 |
| 20260905064616 | 73 | 98 | 0.9 | 0.9 | 0.00 | 0.00 | 0.00 | 78 | 1010.0 |
| 20260905064112 | 73 | 92 | 0.0 | 0.9 | 0.00 | 0.00 | 0.00 | 77 | 1010.0 |
| 20260905063611 | 74 | 94 | 0.9 | 1.7 | 0.00 | 0.00 | 0.00 | 77 | 1009.7 |
| 20260905063108 | 74 | 98 | 0.9 | 1.7 | 0.00 | 0.00 | 0.00 | 76 | 1009.8 |
| 20260905062603 | 74 | 99 | 0.9 | 0.9 | 0.00 | 0.00 | 0.00 | 77 | 1009.7 |
| 20260905062102 | 74 | 94 | 0.0 | 0.9 | 0.00 | 0.00 | 0.00 | 77 | 1009.7 |
| 20260905061557 | 74 | 94 | 0.9 | 1.7 | 0.00 | 0.00 | 0.00 | 76 | 1010.0 |
| 20260905061056 | 74 | 135 | 0.0 | 1.7 | 0.00 | 0.00 | 0.00 | 76 | 1010.1 |
| 20260905060552 | 74 | 95 | 0.0 | 1.7 | 0.00 | 0.00 | 0.00 | 76 | 1010.0 |
| 20260905060048 | 74 | 102 | 0.0 | 0.9 | 0.00 | 0.00 | 0.00 | 75 | 1009.9 |
| 20260905055547 | 74 | 98 | 0.9 | 1.7 | 0.00 | 0.00 | 0.00 | 75 | 1009.9 |
| 20260905055042 | 74 | 88 | 0.0 | 4.3 | 0.00 | 0.00 | 0.00 | 75 | 1010.1 |
| 20260905054538 | 74 | 91 | 0.9 | 1.7 | 0.00 | 0.00 | 0.00 | 75 | 1010.4 |
| 20260905054033 | 75 | 100 | 0.9 | 0.9 | 0.00 | 0.00 | 0.00 | 74 | 1010.3 |
| 20260905053532 | 75 | 96 | 0.0 | 0.9 | 0.00 | 0.00 | 0.00 | 74 | 1010.2 |
| 20260905053028 | 75 | 121 | 0.9 | 1.7 | 0.00 | 0.00 | 0.00 | 74 | 1010.2 |
| 20260905052528 | 75 | 86 | 1.7 | 4.3 | 0.00 | 0.00 | 0.00 | 73 | 1010.4 |
| 20260905052028 | 75 | 110 | 0.9 | 2.6 | 0.00 | 0.00 | 0.00 | 74 | 1010.4 |
| 20260905051523 | 75 | 96 | 0.9 | 0.9 | 0.00 | 0.00 | 0.00 | 74 | 1010.6 |
| 20260905051020 | 75 | 112 | 0.0 | 0.9 | 0.00 | 0.00 | 0.00 | 75 | 1010.7 |
| 20260905050516 | 75 | 97 | 0.0 | 0.9 | 0.00 | 0.00 | 0.00 | 74 | 1010.3 |
| 20260905050013 | 75 | 95 | 0.9 | 1.7 | 0.00 | 0.00 | 0.00 | 74 | 1010.5 |
| 20260905045507 | 75 | 117 | 0.9 | 2.6 | 0.00 | 0.00 | 0.00 | 73 | 1010.5 |
| 20260905045002 | 75 | 106 | 1.7 | 1.7 | 0.00 | 0.00 | 0.00 | 73 | 1010.7 |
| 20260905044457 | 75 | 96 | 0.9 | 1.7 | 0.00 | 0.00 | 0.00 | 74 | 1010.5 |
| 20260905043956 | 75 | 101 | 0.9 | 2.6 | 0.00 | 0.00 | 0.00 | 73 | 1010.6 |
| 20260905043455 | 75 | 104 | 0.9 | 2.6 | 0.00 | 0.00 | 0.00 | 74 | 1010.8 |
| 20260905042951 | 75 | 118 | 2.6 | 4.3 | 0.00 | 0.00 | 0.00 | 73 | 1010.8 |
| 20260905042444 | 75 | 105 | 0.9 | 2.6 | 0.00 | 0.00 | 0.00 | 74 | 1010.8 |
| 20260905041940 | 75 | 104 | 2.6 | 2.6 | 0.00 | 0.00 | 0.00 | 76 | 1010.9 |
| 20260905041431 | 75 | 95 | 0.0 | 0.9 | 0.00 | 0.00 | 0.00 | 77 | 1010.9 |
| 20260905040930 | 75 | 101 | 1.7 | 2.6 | 0.00 | 0.00 | 0.00 | 77 | 1010.9 |
| 20260905040430 | 75 | 94 | 0.0 | 1.7 | 0.00 | 0.00 | 0.00 | 77 | 1011.0 |
| 20260905035929 | 75 | 95 | 0.0 | 0.9 | 0.00 | 0.05 | 0.05 | 78 | 1011.1 |
| 20260905035425 | 75 | 98 | 0.0 | 0.9 | 0.00 | 0.05 | 0.05 | 78 | 1010.8 |
| 20260905034922 | 75 | 95 | 0.0 | 0.9 | 0.00 | 0.05 | 0.05 | 77 | 1011.0 |
| 20260905034416 | 76 | 91 | 0.0 | 0.0 | 0.00 | 0.05 | 0.05 | 77 | 1010.8 |
| 20260905033915 | 76 | 94 | 0.0 | 0.9 | 0.00 | 0.05 | 0.05 | 77 | 1010.9 |
| 20260905033411 | 76 | 94 | 0.9 | 1.7 | 0.00 | 0.05 | 0.05 | 76 | 1010.7 |
| 20260905032910 | 76 | 93 | 0.0 | 0.9 | 0.00 | 0.05 | 0.05 | 76 | 1010.6 |
| 20260905032406 | 76 | 104 | 1.7 | 1.7 | 0.00 | 0.05 | 0.05 | 76 | 1010.7 |
| 20260905031901 | 76 | 91 | 0.0 | 0.9 | 0.00 | 0.05 | 0.05 | 76 | 1010.6 |
| 20260905031357 | 76 | 91 | 0.0 | 0.9 | 0.00 | 0.05 | 0.05 | 75 | 1010.6 |
| 20260905030852 | 76 | 90 | 0.0 | 1.7 | 0.00 | 0.05 | 0.05 | 75 | 1010.6 |
| 20260905030347 | 76 | 93 | 0.0 | 2.6 | 0.00 | 0.05 | 0.05 | 75 | 1010.6 |
| 20260905025846 | 76 | 93 | 0.0 | 1.7 | 0.00 | 0.05 | 0.05 | 75 | 1010.7 |
| 20260905025341 | 76 | 97 | 0.9 | 1.7 | 0.00 | 0.05 | 0.05 | 76 | 1010.5 |
| 20260905024838 | 76 | 91 | 0.9 | 2.6 | 0.00 | 0.05 | 0.05 | 77 | 1010.5 |
| 20260905024333 | 76 | 101 | 0.9 | 1.7 | 0.00 | 0.05 | 0.05 | 78 | 1010.4 |
| 20260905023828 | 76 | 101 | 2.6 | 2.6 | 0.00 | 0.05 | 0.05 | 78 | 1010.4 |
| 20260905023324 | 76 | 94 | 0.0 | 0.0 | 0.00 | 0.05 | 0.05 | 79 | 1010.6 |
| 20260905022822 | 76 | 96 | 0.9 | 0.9 | 0.00 | 0.05 | 0.05 | 78 | 1010.7 |
| 20260905022318 | 76 | 92 | 0.0 | 0.0 | 0.00 | 0.05 | 0.05 | 79 | 1010.9 |
| 20260905021819 | 76 | 95 | 0.9 | 0.9 | 0.00 | 0.05 | 0.05 | 79 | 1010.5 |
| 20260905021314 | 76 | 95 | 0.9 | 0.9 | 0.00 | 0.05 | 0.05 | 78 | 1010.4 |
| 20260905020814 | 76 | 99 | 0.0 | 0.0 | 0.00 | 0.05 | 0.05 | 80 | 1010.6 |
| 20260905020310 | 76 | 92 | 0.0 | 0.0 | 0.00 | 0.05 | 0.05 | 81 | 1010.7 |
| 20260905015808 | 76 | 93 | 0.0 | 0.0 | 0.00 | 0.05 | 0.05 | 81 | 1010.8 |
| 20260905015308 | 76 | 93 | 0.0 | 0.9 | 0.00 | 0.05 | 0.05 | 79 | 1010.8 |
| 20260905014807 | 77 | 93 | 0.0 | 0.9 | 0.00 | 0.05 | 0.05 | 79 | 1010.8 |
| 20260905014303 | 77 | 95 | 0.0 | 0.9 | 0.00 | 0.05 | 0.05 | 78 | 1010.5 |
| 20260905013758 | 77 | 97 | 0.9 | 0.9 | 0.00 | 0.05 | 0.05 | 78 | 1010.8 |
| 20260905013254 | 76 | 93 | 0.9 | 1.7 | 0.00 | 0.05 | 0.05 | 79 | 1010.8 |
| 20260905012744 | 76 | 100 | 0.0 | 0.0 | 0.00 | 0.05 | 0.05 | 80 | 1010.7 |
| 20260905012240 | 76 | 93 | 0.0 | 0.0 | 0.00 | 0.05 | 0.05 | 81 | 1010.7 |
| 20260905011736 | 76 | 95 | 0.0 | 0.9 | 0.00 | 0.05 | 0.05 | 81 | 1010.8 |
| 20260905011231 | 77 | 93 | 0.0 | 0.0 | 0.00 | 0.05 | 0.05 | 82 | 1010.8 |
| 20260905010731 | 76 | 94 | 0.0 | 0.9 | 0.00 | 0.05 | 0.05 | 82 | 1010.8 |
| 20260905010226 | 76 | 93 | 0.0 | 0.0 | 0.00 | 0.05 | 0.05 | 83 | 1010.8 |
| 20260905005723 | 76 | 92 | 0.0 | 0.0 | 0.00 | 0.05 | 0.05 | 83 | 1010.6 |
| 20260905005219 | 76 | 92 | 0.0 | 0.0 | 0.00 | 0.05 | 0.05 | 83 | 1010.6 |
| 20260905004712 | 77 | 92 | 0.0 | 0.0 | 0.00 | 0.05 | 0.05 | 82 | 1010.6 |
| 20260905004208 | 77 | 93 | 0.0 | 0.0 | 0.00 | 0.05 | 0.05 | 82 | 1010.7 |
| 20260905003704 | 77 | 91 | 0.0 | 0.0 | 0.00 | 0.05 | 0.05 | 81 | 1010.3 |
| 20260905003200 | 78 | 93 | 0.0 | 0.9 | 0.00 | 0.05 | 0.05 | 80 | 1010.3 |
| 20260905002655 | 78 | 93 | 0.0 | 0.0 | 0.00 | 0.05 | 0.05 | 79 | 1010.3 |
| 20260905002155 | 78 | 93 | 0.0 | 0.9 | 0.00 | 0.05 | 0.05 | 78 | 1010.3 |
| 20260905001650 | 78 | 95 | 0.0 | 0.9 | 0.00 | 0.05 | 0.05 | 78 | 1010.3 |
| 20260905001149 | 78 | 101 | 0.0 | 0.0 | 0.00 | 0.05 | 0.05 | 78 | 1010.3 |
| 20260905000644 | 78 | 93 | 0.0 | 0.0 | 0.00 | 0.05 | 0.05 | 78 | 1010.4 |
| 20260905000140 | 79 | 90 | 0.0 | 0.0 | 0.00 | 0.05 | 0.05 | 78 | 1010.4 |
| 20260904235640 | 79 | 93 | 0.0 | 0.0 | 0.00 | 0.05 | 0.05 | 78 | 1010.4 |
| 20260904235139 | 79 | 93 | 0.0 | 0.9 | 0.00 | 0.05 | 0.05 | 77 | 1010.2 |
| 20260904234635 | 79 | 93 | 0.0 | 0.0 | 0.00 | 0.05 | 0.05 | 77 | 1010.3 |
| 20260904234130 | 79 | 93 | 0.0 | 0.0 | 0.00 | 0.05 | 0.05 | 77 | 1010.3 |
| 20260904233626 | 79 | 94 | 0.0 | 0.0 | 0.00 | 0.05 | 0.05 | 77 | 1010.7 |
| 20260904233122 | 79 | 93 | 0.0 | 0.0 | 0.00 | 0.05 | 0.05 | 77 | 1010.4 |
| 20260904232618 | 79 | 91 | 0.0 | 0.0 | 0.00 | 0.05 | 0.05 | 76 | 1010.4 |
| 20260904232114 | 79 | 90 | 0.0 | 0.9 | 0.00 | 0.05 | 0.05 | 76 | 1010.5 |
| 20260904231610 | 79 | 90 | 0.0 | 0.0 | 0.00 | 0.05 | 0.05 | 76 | 1010.3 |
| 20260904231109 | 80 | 89 | 0.0 | 0.9 | 0.00 | 0.05 | 0.05 | 76 | 1010.6 |
| 20260904230608 | 80 | 92 | 0.0 | 0.0 | 0.00 | 0.05 | 0.05 | 76 | 1010.3 |
| 20260904230104 | 80 | 93 | 0.9 | 0.9 | 0.00 | 0.05 | 0.05 | 75 | 1010.5 |
| 20260904225601 | 80 | 90 | 0.0 | 0.0 | 0.00 | 0.05 | 0.05 | 74 | 1010.5 |
| 20260904225056 | 81 | 89 | 0.0 | 0.9 | 0.00 | 0.05 | 0.05 | 73 | 1010.4 |
| 20260904224551 | 82 | 93 | 0.0 | 0.0 | 0.00 | 0.05 | 0.05 | 72 | 1010.5 |
| 20260904224046 | 83 | 91 | 0.0 | 0.9 | 0.00 | 0.05 | 0.05 | 70 | 1010.7 |
| 20260904223545 | 83 | 94 | 0.0 | 0.9 | 0.00 | 0.05 | 0.05 | 69 | 1010.5 |
| 20260904223041 | 83 | 97 | 0.9 | 1.7 | 0.00 | 0.05 | 0.05 | 69 | 1010.5 |
| 20260904222536 | 83 | 94 | 0.0 | 0.9 | 0.00 | 0.05 | 0.05 | 69 | 1010.3 |
| 20260904222031 | 85 | 94 | 1.7 | 1.7 | 0.00 | 0.05 | 0.05 | 68 | 1010.6 |
| 20260904221527 | 86 | 100 | 0.9 | 1.7 | 0.00 | 0.05 | 0.05 | 63 | 1010.3 |
| 20260904221026 | 86 | 99 | 0.9 | 2.6 | 0.00 | 0.05 | 0.05 | 64 | 1010.5 |
| 20260904220526 | 86 | 93 | 0.0 | 0.9 | 0.00 | 0.05 | 0.05 | 64 | 1010.3 |
| 20260904220022 | 84 | 88 | 0.9 | 1.7 | 0.00 | 0.05 | 0.05 | 65 | 1010.4 |
| 20260904215522 | 85 | 92 | 0.9 | 1.7 | 0.00 | 0.05 | 0.05 | 64 | 1010.3 |
| 20260904215018 | 84 | 121 | 1.7 | 2.6 | 0.00 | 0.05 | 0.05 | 65 | 1010.4 |
| 20260904214513 | 84 | 97 | 0.9 | 1.7 | 0.00 | 0.05 | 0.05 | 65 | 1010.2 |
| 20260904214008 | 85 | 98 | 0.9 | 5.2 | 0.00 | 0.05 | 0.05 | 64 | 1010.5 |
| 20260904213506 | 86 | 102 | 1.7 | 1.7 | 0.00 | 0.05 | 0.05 | 61 | 1010.1 |
| 20260904213003 | 86 | 98 | 2.6 | 4.3 | 0.00 | 0.05 | 0.05 | 62 | 1010.2 |
| 20260904212503 | 86 | 94 | 3.5 | 4.3 | 0.00 | 0.05 | 0.05 | 62 | 1010.3 |
| 20260904211958 | 86 | 89 | 0.9 | 1.7 | 0.00 | 0.05 | 0.05 | 63 | 1010.2 |
| 20260904211458 | 87 | 136 | 1.7 | 5.2 | 0.00 | 0.05 | 0.05 | 60 | 1010.2 |
| 20260904210954 | 87 | 124 | 0.9 | 2.6 | 0.00 | 0.05 | 0.05 | 59 | 1010.3 |
| 20260904210452 | 87 | 155 | 2.6 | 5.2 | 0.00 | 0.05 | 0.05 | 61 | 1010.3 |
| 20260904205948 | 88 | 79 | 0.0 | 1.7 | 0.00 | 0.05 | 0.05 | 61 | 1010.1 |
| 20260904205443 | 87 | 90 | 0.9 | 2.6 | 0.00 | 0.05 | 0.05 | 61 | 1009.9 |
| 20260904204941 | 87 | 103 | 0.9 | 2.6 | 0.00 | 0.05 | 0.05 | 61 | 1010.3 |
| 20260904204436 | 86 | 89 | 0.0 | 4.3 | 0.00 | 0.05 | 0.05 | 63 | 1010.4 |
| 20260904203932 | 86 | 91 | 0.9 | 5.2 | 0.00 | 0.05 | 0.05 | 65 | 1010.2 |
| 20260904203429 | 86 | 92 | 1.7 | 1.7 | 0.00 | 0.05 | 0.05 | 63 | 1010.4 |
| 20260904202924 | 87 | 101 | 0.9 | 4.3 | 0.00 | 0.05 | 0.05 | 61 | 1010.3 |
| 20260904202420 | 85 | 148 | 3.5 | 4.3 | 0.00 | 0.05 | 0.05 | 62 | 1010.4 |
| 20260904201916 | 84 | 94 | 2.6 | 5.2 | 0.00 | 0.05 | 0.05 | 65 | 1010.5 |
| 20260904201411 | 84 | 96 | 1.7 | 2.6 | 0.00 | 0.05 | 0.05 | 64 | 1010.4 |
| 20260904200906 | 84 | 172 | 2.6 | 7.8 | 0.00 | 0.05 | 0.05 | 64 | 1010.8 |
| 20260904200405 | 84 | 88 | 0.0 | 1.7 | 0.00 | 0.05 | 0.05 | 64 | 1010.9 |
| 20260904195900 | 85 | 91 | 0.9 | 0.9 | 0.00 | 0.05 | 0.05 | 64 | 1010.6 |
| 20260904195357 | 86 | 114 | 0.9 | 1.7 | 0.00 | 0.05 | 0.05 | 62 | 1010.7 |
| 20260904194852 | 88 | 80 | 3.5 | 6.1 | 0.00 | 0.05 | 0.05 | 63 | 1010.7 |
| 20260904194352 | 88 | 98 | 1.7 | 2.6 | 0.00 | 0.05 | 0.05 | 62 | 1010.8 |
| 20260904193847 | 88 | 87 | 0.0 | 4.3 | 0.00 | 0.05 | 0.05 | 61 | 1010.6 |
| 20260904193343 | 88 | 104 | 1.7 | 11.3 | 0.00 | 0.05 | 0.05 | 61 | 1010.8 |
| 20260904192838 | 88 | 86 | 0.9 | 5.2 | 0.00 | 0.05 | 0.05 | 61 | 1010.9 |
| 20260904192333 | 88 | 134 | 0.9 | 4.3 | 0.00 | 0.05 | 0.05 | 61 | 1010.9 |
| 20260904191830 | 88 | 72 | 4.3 | 6.1 | 0.00 | 0.05 | 0.05 | 60 | 1011.1 |
| 20260904191326 | 87 | 84 | 2.6 | 4.3 | 0.00 | 0.05 | 0.05 | 62 | 1011.3 |
| 20260904190822 | 87 | 130 | 2.6 | 2.6 | 0.00 | 0.05 | 0.05 | 64 | 1011.0 |
| 20260904190318 | 86 | 118 | 2.6 | 7.0 | 0.00 | 0.05 | 0.05 | 64 | 1011.1 |
| 20260904185814 | 86 | 134 | 2.6 | 2.6 | 0.00 | 0.05 | 0.05 | 64 | 1011.1 |
| 20260904185309 | 87 | 135 | 2.6 | 4.3 | 0.00 | 0.05 | 0.05 | 63 | 1011.3 |
| 20260904184809 | 87 | 92 | 0.9 | 4.3 | 0.00 | 0.05 | 0.05 | 62 | 1011.2 |
| 20260904184304 | 87 | 104 | 2.6 | 5.2 | 0.00 | 0.05 | 0.05 | 62 | 1011.2 |
| 20260904183800 | 86 | 101 | 2.6 | 4.3 | 0.00 | 0.05 | 0.05 | 63 | 1011.3 |
| 20260904183300 | 86 | 105 | 1.7 | 4.3 | 0.00 | 0.05 | 0.05 | 64 | 1011.2 |
| 20260904182755 | 86 | 13 | 3.5 | 4.3 | 0.00 | 0.05 | 0.05 | 64 | 1011.3 |
| 20260904182250 | 85 | 141 | 2.6 | 4.3 | 0.00 | 0.05 | 0.05 | 65 | 1011.2 |
| 20260904181746 | 85 | 105 | 1.7 | 2.6 | 0.00 | 0.05 | 0.05 | 64 | 1011.3 |
| 20260904181245 | 85 | 110 | 2.6 | 6.1 | 0.00 | 0.05 | 0.05 | 65 | 1011.4 |
| 20260904180741 | 85 | 146 | 1.7 | 4.3 | 0.00 | 0.05 | 0.05 | 64 | 1011.5 |
| 20260904180236 | 85 | 116 | 1.7 | 1.7 | 0.00 | 0.05 | 0.05 | 63 | 1011.4 |
| 20260904175735 | 87 | 86 | 2.6 | 4.3 | 0.00 | 0.05 | 0.05 | 61 | 1011.2 |
| 20260904175233 | 87 | 102 | 0.9 | 4.3 | 0.00 | 0.05 | 0.05 | 62 | 1011.3 |
| 20260904174729 | 86 | 114 | 1.7 | 2.6 | 0.00 | 0.05 | 0.05 | 63 | 1011.1 |
| 20260904174225 | 86 | 93 | 3.5 | 5.2 | 0.00 | 0.05 | 0.05 | 62 | 1011.3 |
| 20260904173721 | 86 | 99 | 1.7 | 2.6 | 0.00 | 0.05 | 0.05 | 64 | 1011.1 |
| 20260904173220 | 84 | 79 | 2.6 | 7.8 | 0.00 | 0.05 | 0.05 | 66 | 1011.4 |
| 20260904172717 | 84 | 128 | 2.6 | 4.3 | 0.00 | 0.05 | 0.05 | 67 | 1011.4 |
| 20260904172216 | 84 | 114 | 1.7 | 2.6 | 0.00 | 0.05 | 0.05 | 65 | 1011.3 |
| 20260904171711 | 85 | 137 | 1.7 | 4.3 | 0.00 | 0.05 | 0.05 | 66 | 1011.2 |
| 20260904171206 | 86 | 100 | 1.7 | 1.7 | 0.00 | 0.05 | 0.05 | 63 | 1011.3 |
| 20260904170703 | 86 | 138 | 3.5 | 4.3 | 0.00 | 0.05 | 0.05 | 62 | 1011.2 |
| 20260904170158 | 86 | 108 | 1.7 | 2.6 | 0.00 | 0.05 | 0.05 | 63 | 1011.4 |
| 20260904165656 | 86 | 148 | 2.6 | 4.3 | 0.00 | 0.05 | 0.05 | 64 | 1011.5 |
| 20260904165151 | 85 | 90 | 0.0 | 1.7 | 0.00 | 0.05 | 0.05 | 63 | 1011.4 |
| 20260904164646 | 85 | 97 | 0.0 | 2.6 | 0.00 | 0.05 | 0.05 | 65 | 1011.4 |
| 20260904164141 | 86 | 121 | 1.7 | 2.6 | 0.00 | 0.05 | 0.05 | 62 | 1011.4 |
| 20260904163636 | 86 | 139 | 4.3 | 7.0 | 0.00 | 0.05 | 0.05 | 62 | 1011.6 |
| 20260904163131 | 86 | 75 | 2.6 | 5.2 | 0.00 | 0.05 | 0.05 | 63 | 1011.4 |
| 20260904162626 | 86 | 160 | 4.3 | 7.0 | 0.00 | 0.05 | 0.05 | 63 | 1011.8 |
| 20260904162126 | 86 | 85 | 5.2 | 7.0 | 0.00 | 0.05 | 0.05 | 62 | 1011.5 |
| 20260904161621 | 86 | 161 | 2.6 | 4.3 | 0.00 | 0.05 | 0.05 | 63 | 1011.3 |
| 20260904161116 | 85 | 87 | 1.7 | 1.7 | 0.00 | 0.05 | 0.05 | 63 | 1011.2 |
| 20260904160612 | 85 | 70 | 1.7 | 5.2 | 0.00 | 0.05 | 0.05 | 65 | 1011.5 |
| 20260904160108 | 85 | 102 | 0.9 | 5.2 | 0.00 | 0.05 | 0.05 | 67 | 1011.6 |
| 20260904155608 | 85 | 123 | 1.7 | 5.2 | 0.00 | 0.05 | 0.05 | 66 | 1011.5 |
| 20260904155102 | 86 | 104 | 1.7 | 4.3 | 0.00 | 0.05 | 0.05 | 68 | 1011.6 |
| 20260904154555 | 85 | 113 | 1.7 | 2.6 | 0.00 | 0.05 | 0.05 | 67 | 1011.6 |
| 20260904154051 | 85 | 125 | 1.7 | 6.1 | 0.00 | 0.05 | 0.05 | 68 | 1011.7 |
| 20260904153550 | 84 | 95 | 0.9 | 5.2 | 0.00 | 0.05 | 0.05 | 70 | 1011.5 |
| 20260904153047 | 84 | 119 | 2.6 | 5.2 | 0.00 | 0.05 | 0.05 | 70 | 1011.6 |
| 20260904152542 | 84 | 106 | 2.6 | 4.3 | 0.00 | 0.05 | 0.05 | 67 | 1011.8 |
| 20260904152037 | 83 | 21 | 2.6 | 6.1 | 0.00 | 0.05 | 0.05 | 71 | 1012.0 |
| 20260904151533 | 83 | 95 | 1.7 | 4.3 | 0.00 | 0.05 | 0.05 | 71 | 1011.7 |
| 20260904151032 | 83 | 90 | 0.9 | 5.2 | 0.00 | 0.05 | 0.05 | 72 | 1011.9 |
| 20260904150532 | 83 | 151 | 2.6 | 7.0 | 0.00 | 0.05 | 0.05 | 71 | 1011.9 |
| 20260904150027 | 82 | 344 | 2.6 | 7.0 | 0.00 | 0.05 | 0.05 | 73 | 1011.8 |
| 20260904145521 | 82 | 139 | 2.6 | 8.7 | 0.00 | 0.05 | 0.05 | 73 | 1011.8 |
| 20260904145016 | 82 | 152 | 2.6 | 5.2 | 0.00 | 0.05 | 0.05 | 74 | 1011.8 |
| 20260904144512 | 82 | 162 | 4.3 | 8.7 | 0.00 | 0.05 | 0.05 | 76 | 1011.8 |
| 20260904144008 | 82 | 90 | 1.7 | 4.3 | 0.00 | 0.05 | 0.05 | 76 | 1011.7 |
| 20260904143504 | 81 | 126 | 2.6 | 7.0 | 0.00 | 0.05 | 0.05 | 78 | 1011.7 |
| 20260904143001 | 81 | 136 | 2.6 | 5.2 | 0.00 | 0.05 | 0.05 | 80 | 1011.6 |
| 20260904142457 | 81 | 101 | 0.9 | 1.7 | 0.00 | 0.05 | 0.05 | 80 | 1011.6 |
| 20260904141956 | 80 | 117 | 3.5 | 4.3 | 0.00 | 0.05 | 0.05 | 81 | 1011.7 |
| 20260904141451 | 80 | 196 | 3.5 | 5.2 | 0.00 | 0.05 | 0.05 | 82 | 1011.7 |
| 20260904140948 | 80 | 114 | 1.7 | 2.6 | 0.00 | 0.05 | 0.05 | 84 | 1011.5 |
| 20260904140447 | 79 | 269 | 1.7 | 2.6 | 0.00 | 0.05 | 0.05 | 85 | 1011.7 |
| 20260904135946 | 79 | 113 | 1.7 | 4.3 | 0.00 | 0.05 | 0.05 | 85 | 1011.7 |
| 20260904135446 | 79 | 112 | 1.7 | 5.2 | 0.00 | 0.05 | 0.05 | 86 | 1011.7 |
| 20260904134943 | 78 | 103 | 1.7 | 6.1 | 0.00 | 0.05 | 0.05 | 87 | 1011.5 |
| 20260904134442 | 78 | 30 | 1.7 | 2.6 | 0.00 | 0.05 | 0.05 | 87 | 1011.5 |
| 20260904133937 | 78 | 124 | 1.7 | 5.2 | 0.00 | 0.05 | 0.05 | 88 | 1011.7 |
| 20260904133432 | 78 | 115 | 4.3 | 5.2 | 0.00 | 0.05 | 0.05 | 88 | 1011.6 |
| 20260904132928 | 78 | 119 | 2.6 | 8.7 | 0.00 | 0.05 | 0.05 | 88 | 1011.7 |
| 20260904132422 | 78 | 79 | 2.6 | 5.2 | 0.00 | 0.05 | 0.05 | 88 | 1011.3 |
| 20260904131922 | 78 | 138 | 5.2 | 7.0 | 0.00 | 0.05 | 0.05 | 88 | 1011.2 |
| 20260904131417 | 78 | 108 | 2.6 | 5.2 | 0.00 | 0.05 | 0.05 | 89 | 1011.5 |
| 20260904130913 | 77 | 92 | 0.9 | 2.6 | 0.00 | 0.05 | 0.05 | 89 | 1011.4 |
| 20260904130412 | 77 | 142 | 2.6 | 7.0 | 0.00 | 0.05 | 0.05 | 89 | 1011.3 |
| 20260904125907 | 77 | 105 | 1.7 | 1.7 | 0.00 | 0.05 | 0.05 | 91 | 1011.4 |
| 20260904125404 | 77 | 97 | 0.0 | 1.7 | 0.00 | 0.05 | 0.05 | 92 | 1011.3 |
| 20260904124902 | 76 | 115 | 2.6 | 4.3 | 0.00 | 0.05 | 0.05 | 92 | 1011.3 |
| 20260904124359 | 76 | 99 | 2.6 | 7.0 | 0.00 | 0.05 | 0.05 | 93 | 1011.4 |
| 20260904123854 | 76 | 93 | 2.6 | 4.3 | 0.00 | 0.05 | 0.05 | 94 | 1011.3 |
| 20260904123349 | 75 | 93 | 1.7 | 4.3 | 0.00 | 0.05 | 0.05 | 95 | 1011.4 |
| 20260904122845 | 75 | 92 | 0.9 | 2.6 | 0.00 | 0.05 | 0.05 | 96 | 1011.2 |
| 20260904122344 | 75 | 97 | 0.9 | 2.6 | 0.00 | 0.05 | 0.05 | 97 | 1011.3 |
| 20260904121839 | 75 | 67 | 0.9 | 1.7 | 0.00 | 0.05 | 0.05 | 97 | 1011.2 |
| 20260904121336 | 74 | 111 | 2.6 | 2.6 | 0.00 | 0.05 | 0.05 | 98 | 1011.3 |
| 20260904120832 | 74 | 90 | 1.7 | 1.7 | 0.00 | 0.05 | 0.05 | 98 | 1011.2 |
| 20260904120327 | 74 | 88 | 1.7 | 2.6 | 0.00 | 0.05 | 0.05 | 98 | 1011.3 |
| 20260904115822 | 74 | 95 | 0.0 | 2.6 | 0.00 | 0.05 | 0.05 | 98 | 1011.3 |
| 20260904115317 | 74 | 103 | 0.9 | 1.7 | 0.00 | 0.05 | 0.05 | 98 | 1011.0 |
| 20260904114817 | 74 | 110 | 0.9 | 0.9 | 0.00 | 0.05 | 0.05 | 98 | 1011.1 |
| 20260904114312 | 74 | 87 | 2.6 | 4.3 | 0.00 | 0.05 | 0.05 | 99 | 1010.9 |
| 20260904113807 | 74 | 98 | 0.9 | 5.2 | 0.00 | 0.05 | 0.05 | 99 | 1011.2 |
| 20260904113306 | 74 | 99 | 0.9 | 2.6 | 0.00 | 0.05 | 0.05 | 99 | 1011.2 |
| 20260904112801 | 74 | 120 | 0.9 | 1.7 | 0.00 | 0.05 | 0.05 | 99 | 1011.1 |
| 20260904112256 | 74 | 93 | 0.0 | 0.9 | 0.00 | 0.05 | 0.05 | 99 | 1010.9 |
| 20260904111752 | 74 | 82 | 0.0 | 1.7 | 0.00 | 0.05 | 0.05 | 99 | 1010.8 |
| 20260904111248 | 74 | 79 | 0.9 | 6.1 | 0.00 | 0.05 | 0.05 | 99 | 1010.5 |
| 20260904110743 | 74 | 86 | 0.9 | 2.6 | 0.00 | 0.05 | 0.05 | 99 | 1010.7 |
| 20260904110242 | 74 | 90 | 0.9 | 2.6 | 0.00 | 0.05 | 0.05 | 99 | 1010.6 |
| 20260904105738 | 74 | 77 | 0.9 | 0.9 | 0.00 | 0.05 | 0.05 | 99 | 1010.8 |
| 20260904105232 | 74 | 92 | 0.9 | 2.6 | 0.00 | 0.05 | 0.05 | 99 | 1010.8 |
| 20260904104728 | 74 | 90 | 0.0 | 5.2 | 0.00 | 0.05 | 0.05 | 99 | 1010.4 |
| 20260904104223 | 74 | 98 | 0.9 | 2.6 | 0.00 | 0.05 | 0.05 | 99 | 1010.7 |
| 20260904103720 | 74 | 94 | 0.9 | 1.7 | 0.00 | 0.05 | 0.05 | 99 | 1010.6 |
| 20260904103214 | 74 | 89 | 1.7 | 1.7 | 0.00 | 0.05 | 0.05 | 99 | 1010.4 |
| 20260904102710 | 74 | 89 | 0.0 | 1.7 | 0.00 | 0.05 | 0.05 | 99 | 1010.5 |
| 20260904102206 | 74 | 84 | 0.9 | 2.6 | 0.00 | 0.05 | 0.05 | 99 | 1010.4 |
| 20260904101702 | 74 | 117 | 0.9 | 1.7 | 0.00 | 0.05 | 0.05 | 99 | 1010.4 |
| 20260904101157 | 74 | 93 | 0.9 | 2.6 | 0.00 | 0.05 | 0.05 | 99 | 1010.3 |
| 20260904100653 | 74 | 93 | 0.0 | 1.7 | 0.00 | 0.05 | 0.05 | 99 | 1010.3 |
| 20260904100149 | 74 | 84 | 1.7 | 1.7 | 0.00 | 0.05 | 0.05 | 99 | 1010.3 |
| 20260904095648 | 74 | 93 | 0.9 | 1.7 | 0.00 | 0.05 | 0.05 | 99 | 1010.4 |
| 20260904095143 | 74 | 90 | 0.9 | 1.7 | 0.00 | 0.05 | 0.05 | 99 | 1010.2 |
| 20260904094638 | 74 | 101 | 2.6 | 4.3 | 0.00 | 0.05 | 0.05 | 99 | 1010.5 |
| 20260904094132 | 74 | 97 | 1.7 | 1.7 | 0.00 | 0.05 | 0.05 | 99 | 1010.5 |
| 20260904093630 | 74 | 90 | 0.9 | 1.7 | 0.00 | 0.05 | 0.05 | 99 | 1010.3 |
| 20260904093129 | 74 | 93 | 0.9 | 1.7 | 0.00 | 0.05 | 0.05 | 99 | 1010.1 |
| 20260904092625 | 74 | 94 | 0.9 | 0.9 | 0.00 | 0.05 | 0.05 | 99 | 1010.3 |
| 20260904092121 | 74 | 94 | 0.9 | 4.3 | 0.00 | 0.05 | 0.05 | 99 | 1010.4 |
| 20260904091617 | 74 | 75 | 2.6 | 2.6 | 0.00 | 0.05 | 0.05 | 99 | 1010.2 |
| 20260904091117 | 74 | 95 | 0.0 | 1.7 | 0.00 | 0.05 | 0.05 | 99 | 1010.4 |